CW0566 Weather Reports


Display with metric or nautical units.
time (UTC)temp
F
wind
direction
speed
MPH
gust
MPH
rain 1hr
in
rain 24hr
in
rain mn
in
humidity
%
barometer
mb
20260906205017 81 23 3.0 7.0 0.00 0.00 0.00 55 1014.6
20260906204017 80 293 2.0 5.0 0.00 0.00 0.00 56 1014.5
20260906203017 80 23 3.0 7.0 0.00 0.00 0.00 55 1014.5
20260906202017 80 90 2.0 7.0 0.00 0.00 0.00 56 1014.6
20260906201017 80 90 2.0 5.0 0.00 0.00 0.00 54 1014.6
20260906200017 80 90 2.0 5.0 0.00 0.00 0.00 60 1014.6
20260906195017 80 45 3.0 9.0 0.00 0.00 0.00 57 1014.7
20260906194017 80 45 2.0 8.0 0.00 0.00 0.00 59 1014.6
20260906193017 79 113 2.0 5.0 0.00 0.00 0.00 63 1014.6
20260906192017 79 23 3.0 9.0 0.00 0.00 0.00 62 1014.8
20260906191017 79 135 3.0 8.0 0.00 0.00 0.00 60 1014.7
20260906190037 79 90 3.0 9.0 0.00 0.00 0.00 63 1014.7
20260906185037 79 23 2.0 5.0 0.00 0.00 0.00 64 1014.7
20260906184017 79 0 2.0 4.0 0.00 0.00 0.00 67 1014.9
20260906183016 78 45 2.0 5.0 0.00 0.00 0.00 64 1014.9
20260906182017 78 0 1.0 4.0 0.00 0.00 0.00 67 1014.9
20260906181037 77 45 2.0 5.0 0.00 0.00 0.00 66 1015.0
20260906180017 79 90 2.0 6.0 0.00 0.00 0.00 64 1015.0
20260906175037 79 90 3.0 7.0 0.00 0.00 0.00 64 1015.0
20260906174016 79 23 2.0 5.0 0.00 0.00 0.00 66 1015.1
20260906173016 78 90 3.0 5.0 0.00 0.00 0.00 67 1015.2
20260906172017 78 158 4.0 10.0 0.00 0.00 0.00 65 1015.0
20260906171017 78 90 2.0 5.0 0.00 0.00 0.00 70 1015.1
20260906170017 77 68 2.0 5.0 0.00 0.00 0.00 68 1015.0
20260906165016 77 23 2.0 7.0 0.00 0.00 0.00 69 1015.1
20260906164016 76 0 2.0 4.0 0.00 0.00 0.00 71 1015.1
20260906163037 76 90 2.0 6.0 0.00 0.00 0.00 71 1015.1
20260906162016 77 90 3.0 8.0 0.00 0.00 0.00 72 1015.2
20260906161017 78 23 2.0 7.0 0.00 0.00 0.00 71 1015.2
20260906160016 76 90 3.0 9.0 0.00 0.00 0.00 74 1015.3
20260906155017 74 113 3.0 7.0 0.00 0.00 0.00 73 1015.4
20260906154038 74 90 3.0 8.0 0.00 0.00 0.00 74 1015.3
20260906153016 75 45 1.0 4.0 0.00 0.00 0.00 74 1015.3
20260906152136 76 68 2.0 7.0 0.00 0.00 0.00 74 1015.3
20260906151036 75 135 4.0 9.0 0.00 0.00 0.00 78 1015.3
20260906150056 74 135 3.0 8.0 0.00 0.00 0.00 77 1015.4
20260906145016 74 90 4.0 11.0 0.00 0.00 0.00 76 1015.3
20260906144017 74 113 3.0 6.0 0.00 0.00 0.00 78 1015.3
20260906143016 73 90 3.0 6.0 0.00 0.00 0.00 78 1015.2
20260906142056 73 113 2.0 6.0 0.00 0.00 0.00 82 1015.2
20260906141016 73 23 2.0 7.0 0.00 0.00 0.00 80 1015.3
20260906140016 74 90 3.0 7.0 0.00 0.00 0.00 79 1015.2
20260906135016 74 68 2.0 6.0 0.00 0.00 0.00 79 1015.1
20260906134036 73 113 3.0 5.0 0.00 0.00 0.00 79 1015.0
20260906133016 73 113 3.0 8.0 0.00 0.00 0.00 79 1014.8
20260906132016 73 23 2.0 4.0 0.00 0.00 0.00 80 1014.8
20260906131016 72 23 2.0 5.0 0.00 0.00 0.00 81 1014.8
20260906130036 72 23 3.0 7.0 0.00 0.00 0.00 81 1014.8
20260906125036 71 23 2.0 8.0 0.00 0.00 0.00 83 1014.8
20260906124016 71 135 1.0 4.0 0.00 0.00 0.00 85 1014.8
20260906123016 70 45 1.0 5.0 0.00 0.00 0.00 88 1014.7
20260906122036 68 315 1.0 4.0 0.00 0.00 0.00 94 1014.6
20260906121016 67 0.0 2.0 0.00 0.00 0.00 96 1014.5
20260906120016 66 0.0 2.0 0.00 0.00 0.00 97 1014.4
20260906115016 64 0.0 1.0 0.00 0.00 0.00 98 1014.3
20260906114036 63 0.0 0.0 0.00 0.00 0.00 97 1014.3
20260906113016 61 0.0 0.0 0.00 0.00 0.00 97 1014.2
20260906112016 60 0.0 0.0 0.00 0.00 0.00 96 1014.1
20260906111016 60 0.0 0.0 0.00 0.00 0.00 96 1014.0
20260906110057 59 0.0 0.0 0.00 0.00 0.00 96 1013.6
20260906105036 59 0.0 0.0 0.00 0.00 0.00 96 1013.6
20260906104015 59 0.0 0.0 0.00 0.00 0.00 96 1013.5
20260906103015 59 0.0 0.0 0.00 0.00 0.00 96 1013.3
20260906102016 59 0.0 0.0 0.00 0.00 0.00 96 1013.3
20260906101015 59 0.0 0.0 0.00 0.00 0.00 96 1013.2
20260906100035 59 0.0 0.0 0.00 0.00 0.00 96 1013.0
20260906095016 60 0.0 0.0 0.00 0.00 0.00 96 1013.0
20260906094016 60 0.0 0.0 0.00 0.00 0.00 96 1012.8
20260906093015 60 0.0 0.0 0.00 0.00 0.00 96 1012.6
20260906092035 60 0.0 0.0 0.00 0.00 0.00 96 1012.6
20260906091015 60 0.0 0.0 0.00 0.00 0.00 96 1012.3
20260906090015 60 0.0 0.0 0.00 0.00 0.00 95 1012.2
20260906085016 60 0.0 0.0 0.00 0.00 0.00 95 1012.2
20260906084015 60 0.0 0.0 0.00 0.00 0.00 95 1012.1
20260906083017 60 0.0 0.0 0.00 0.00 0.00 95 1012.0
20260906082017 60 0.0 0.0 0.00 0.00 0.00 95 1012.0
20260906081017 60 0.0 0.0 0.00 0.00 0.00 95 1011.9
20260906080037 61 0.0 0.0 0.00 0.00 0.00 95 1011.9
20260906075017 61 0.0 0.0 0.00 0.00 0.00 95 1011.9
20260906074017 61 0.0 0.0 0.00 0.00 0.00 95 1011.8
20260906073017 61 0.0 0.0 0.00 0.00 0.00 95 1011.8
20260906072017 61 0.0 0.0 0.00 0.00 0.00 95 1011.7
20260906071018 61 0.0 0.0 0.00 0.00 0.00 95 1011.7
20260906070017 61 0.0 0.0 0.00 0.00 0.00 94 1011.8
20260906065037 61 0.0 0.0 0.00 0.00 0.00 94 1011.7
20260906064017 61 0.0 0.0 0.00 0.00 0.00 94 1011.6
20260906063017 62 0.0 0.0 0.00 0.00 0.00 94 1011.7
20260906062017 62 0.0 0.0 0.00 0.00 0.00 94 1011.8
20260906061017 62 0.0 0.0 0.00 0.00 0.00 94 1011.9
20260906060017 62 0.0 0.0 0.00 0.00 0.00 93 1011.9
20260906055018 62 0.0 0.0 0.00 0.00 0.00 93 1011.9
20260906054017 62 0.0 0.0 0.00 0.00 0.00 93 1011.9
20260906053017 62 0.0 0.0 0.00 0.00 0.00 93 1012.1
20260906052017 62 0.0 0.0 0.00 0.00 0.00 93 1012.0
20260906051017 63 0.0 0.0 0.00 0.00 0.00 93 1012.1
20260906050017 63 0.0 0.0 0.00 0.00 0.00 93 1012.2
20260906045017 63 0.0 0.0 0.00 0.00 0.00 92 1012.2
20260906044017 63 0.0 0.0 0.00 0.00 0.00 92 1012.2
20260906043017 63 0.0 0.0 0.00 0.00 0.00 92 1012.2
20260906042017 63 0.0 0.0 0.00 0.00 0.00 92 1012.3
20260906041017 64 0.0 0.0 0.00 0.00 0.00 92 1012.2
20260906040037 64 0.0 0.0 0.00 0.00 0.00 91 1012.2
20260906035015 64 0.0 0.0 0.00 0.00 0.00 91 1012.3
20260906034016 64 0.0 0.0 0.00 0.00 0.00 91 1012.2
20260906033016 64 0.0 0.0 0.00 0.00 0.00 91 1012.3
20260906032056 65 0.0 0.0 0.00 0.00 0.00 90 1012.2
20260906031016 65 0.0 0.0 0.00 0.00 0.00 90 1012.0
20260906030015 65 0.0 0.0 0.00 0.00 0.00 90 1011.8
20260906025015 65 0.0 0.0 0.00 0.00 0.00 90 1012.0
20260906024015 66 0.0 0.0 0.00 0.00 0.00 90 1011.8
20260906023035 66 0.0 0.0 0.00 0.00 0.00 90 1011.9
20260906022017 66 0.0 0.0 0.00 0.00 0.00 90 1011.9
20260906021018 66 0.0 0.0 0.00 0.00 0.00 90 1011.9
20260906020017 67 0.0 0.0 0.00 0.00 0.00 89 1011.9
20260906015017 67 0.0 0.0 0.00 0.00 0.00 89 1011.8
20260906014017 67 0.0 0.0 0.00 0.00 0.00 88 1011.7
20260906013057 67 0.0 0.0 0.00 0.00 0.00 87 1011.8
20260906012017 68 0.0 0.0 0.00 0.00 0.00 87 1011.6
20260906011018 68 0.0 0.0 0.00 0.00 0.00 86 1011.4
20260906010017 68 0.0 2.0 0.00 0.00 0.00 85 1011.4
20260906005017 69 0.0 0.0 0.00 0.00 0.00 83 1011.4
20260906004017 69 0.0 1.0 0.00 0.00 0.00 83 1011.3
20260906003017 70 0.0 0.0 0.00 0.00 0.00 82 1011.3
20260906002017 71 0.0 0.0 0.00 0.00 0.00 81 1011.1
20260906001037 72 0.0 0.0 0.00 0.00 0.00 79 1011.1
20260906000017 73 0.0 0.0 0.00 0.00 0.00 77 1010.9
20260905235017 74 0.0 0.0 0.00 0.00 0.00 76 1010.9
20260905234018 75 293 1.0 2.0 0.00 0.00 0.00 76 1010.6
20260905233017 75 0.0 1.0 0.00 0.00 0.00 74 1010.5
20260905232017 77 0.0 0.0 0.00 0.00 0.00 72 1010.5
20260905231017 78 0.0 1.0 0.00 0.00 0.00 71 1010.6
20260905230017 79 0.0 1.0 0.00 0.00 0.00 66 1010.6
20260905225037 80 0.0 1.0 0.00 0.00 0.00 61 1010.6
20260905224037 81 0.0 2.0 0.00 0.00 0.00 58 1010.4
20260905223037 82 0.0 2.0 0.00 0.00 0.00 56 1010.4
20260905222017 82 293 1.0 3.0 0.00 0.00 0.00 55 1010.4
20260905221017 81 293 1.0 2.0 0.00 0.00 0.00 55 1010.2
20260905220017 81 0.0 2.0 0.00 0.00 0.00 57 1010.2
20260905215017 81 23 2.0 7.0 0.00 0.00 0.00 55 1010.3
20260905214037 82 23 2.0 8.0 0.00 0.00 0.00 53 1010.1
20260905213017 82 23 3.0 8.0 0.00 0.00 0.00 54 1010.1
20260905212017 83 23 2.0 5.0 0.00 0.00 0.00 54 1010.1
20260905211058 83 0 2.0 7.0 0.00 0.00 0.00 57 1010.0
20260905210037 83 68 2.0 5.0 0.00 0.00 0.00 57 1010.0